| time (UTC) | temp C | wind direction | speed KPH | gust KPH | rain 1hr cm | rain 24hr cm | rain mn cm | humidity % | barometer mb |
| 20260504202505 | 18 | 18 | 16.1 | 24.1 | 0.00 | 0.00 | 0.00 | 24 | 1007.5 |
| 20260504202005 | 18 | 350 | 14.5 | 27.4 | 0.00 | 0.00 | 0.00 | 24 | 1007.6 |
| 20260504201504 | 18 | 11 | 9.7 | 22.5 | 0.00 | 0.00 | 0.00 | 27 | 1007.5 |
| 20260504201005 | 18 | 329 | 8.0 | 25.7 | 0.00 | 0.00 | 0.00 | 26 | 1007.6 |
| 20260504200504 | 17 | 343 | 8.0 | 25.7 | 0.00 | 0.00 | 0.00 | 27 | 1007.7 |
| 20260504200005 | 17 | 336 | 9.7 | 25.7 | 0.00 | 0.00 | 0.00 | 25 | 1007.6 |
| 20260504200003 | 17 | 336 | 8.0 | 25.7 | 0.00 | 0.00 | 0.00 | 25 | 997.9 |
| 20260504195504 | 18 | 12 | 8.0 | 30.6 | 0.00 | 0.00 | 0.00 | 24 | 1007.7 |
| 20260504195002 | 18 | 347 | 12.9 | 33.8 | 0.00 | 0.00 | 0.00 | 23 | 1007.6 |
| 20260504194504 | 19 | 188 | 11.3 | 20.9 | 0.00 | 0.00 | 0.00 | 21 | 1007.3 |
| 20260504194502 | 19 | 188 | 11.3 | 20.9 | 0.00 | 0.00 | 0.00 | 21 | 997.5 |
| 20260504194006 | 20 | 199 | 9.7 | 19.3 | 0.00 | 0.00 | 0.00 | 18 | 1007.4 |
| 20260504193505 | 20 | 165 | 11.3 | 20.9 | 0.00 | 0.00 | 0.00 | 20 | 1007.4 |
| 20260504193005 | 19 | 213 | 6.4 | 14.5 | 0.00 | 0.00 | 0.00 | 21 | 1007.3 |
| 20260504193003 | 19 | 213 | 6.4 | 14.5 | 0.00 | 0.00 | 0.00 | 21 | 997.5 |
| 20260504192504 | 19 | 163 | 6.4 | 14.5 | 0.00 | 0.00 | 0.00 | 20 | 1007.3 |
| 20260504192005 | 18 | 16 | 6.4 | 16.1 | 0.00 | 0.00 | 0.00 | 20 | 1007.3 |
| 20260504191504 | 19 | 37 | 9.7 | 14.5 | 0.00 | 0.00 | 0.00 | 20 | 1007.3 |
| 20260504191502 | 19 | 37 | 8.0 | 14.5 | 0.00 | 0.00 | 0.00 | 20 | 997.5 |
| 20260504191005 | 20 | 55 | 6.4 | 14.5 | 0.00 | 0.00 | 0.00 | 21 | 1007.4 |
| 20260504190505 | 19 | 327 | 6.4 | 19.3 | 0.00 | 0.00 | 0.00 | 23 | 1007.4 |
| 20260504190005 | 18 | 355 | 8.0 | 22.5 | 0.00 | 0.00 | 0.00 | 25 | 997.7 |
| 20260504185504 | 18 | 326 | 12.9 | 22.5 | 0.00 | 0.00 | 0.00 | 24 | 1007.6 |
| 20260504185002 | 18 | 281 | 14.5 | 22.5 | 0.00 | 0.00 | 0.00 | 22 | 1007.7 |
| 20260504184504 | 18 | 289 | 4.8 | 12.9 | 0.00 | 0.00 | 0.00 | 22 | 1007.7 |
| 20260504184502 | 18 | 289 | 3.2 | 12.9 | 0.00 | 0.00 | 0.00 | 22 | 998.0 |
| 20260504184005 | 18 | 311 | 4.8 | 12.9 | 0.00 | 0.00 | 0.00 | 21 | 1007.7 |
| 20260504183504 | 18 | 294 | 3.2 | 12.9 | 0.00 | 0.00 | 0.00 | 22 | 1007.8 |
| 20260504183006 | 18 | 288 | 6.4 | 12.9 | 0.00 | 0.00 | 0.00 | 22 | 1007.9 |
| 20260504183002 | 18 | 288 | 4.8 | 12.9 | 0.00 | 0.00 | 0.00 | 22 | 998.1 |
| 20260504182504 | 18 | 238 | 3.2 | 16.1 | 0.00 | 0.00 | 0.00 | 24 | 1007.9 |
| 20260504181505 | 17 | 300 | 8.0 | 17.7 | 0.00 | 0.00 | 0.00 | 21 | 998.2 |
| 20260504181005 | 17 | 290 | 9.7 | 17.7 | 0.00 | 0.00 | 0.00 | 23 | 1008.0 |
| 20260504180504 | 17 | 309 | 8.0 | 19.3 | 0.00 | 0.00 | 0.00 | 22 | 1008.1 |
| 20260504180006 | 18 | 309 | 8.0 | 24.1 | 0.00 | 0.00 | 0.00 | 22 | 1008.0 |
| 20260504180004 | 18 | 309 | 6.4 | 24.1 | 0.00 | 0.00 | 0.00 | 22 | 998.2 |
| 20260504175505 | 18 | 355 | 16.1 | 25.7 | 0.00 | 0.00 | 0.00 | 21 | 1008.1 |
| 20260504175006 | 18 | 348 | 9.7 | 27.4 | 0.00 | 0.00 | 0.00 | 22 | 1008.3 |
| 20260504174505 | 18 | 314 | 19.3 | 27.4 | 0.00 | 0.00 | 0.00 | 21 | 1008.4 |
| 20260504174503 | 18 | 314 | 17.7 | 27.4 | 0.00 | 0.00 | 0.00 | 21 | 998.6 |
| 20260504174005 | 18 | 309 | 6.4 | 20.9 | 0.00 | 0.00 | 0.00 | 24 | 1008.3 |
| 20260504173505 | 17 | 298 | 4.8 | 14.5 | 0.00 | 0.00 | 0.00 | 24 | 1008.6 |
| 20260504173006 | 17 | 239 | 6.4 | 17.7 | 0.00 | 0.00 | 0.00 | 23 | 1008.7 |
| 20260504173002 | 17 | 239 | 6.4 | 17.7 | 0.00 | 0.00 | 0.00 | 23 | 999.0 |
| 20260504172504 | 18 | 260 | 6.4 | 22.5 | 0.00 | 0.00 | 0.00 | 23 | 1008.7 |
| 20260504171503 | 18 | 285 | 3.2 | 20.9 | 0.00 | 0.00 | 0.00 | 23 | 999.0 |
| 20260504170505 | 18 | 296 | 8.0 | 20.9 | 0.00 | 0.00 | 0.00 | 21 | 1008.8 |
| 20260504151005 | 17 | 265 | 9.7 | 19.3 | 0.00 | 0.00 | 0.00 | 26 | 1009.4 |
| 20260504150504 | 16 | 261 | 9.7 | 19.3 | 0.00 | 0.00 | 0.00 | 27 | 1009.3 |
| 20260504140505 | 14 | 251 | 8.0 | 17.7 | 0.00 | 0.00 | 0.00 | 33 | 1009.3 |
| 20260504130505 | 8 | 211 | 3.2 | 8.0 | 0.00 | 0.00 | 0.00 | 45 | 1009.4 |
| 20260504110504 | 6 | 221 | 3.2 | 4.8 | 0.00 | 0.00 | 0.00 | 51 | 1009.3 |
| 20260504100504 | 5 | 257 | 3.2 | 4.8 | 0.00 | 0.00 | 0.00 | 56 | 1009.7 |
| 20260504082006 | 7 | 194 | 4.8 | 9.7 | 0.00 | 0.00 | 0.00 | 49 | 1010.1 |
| 20260504081503 | 7 | 213 | 3.2 | 6.4 | 0.00 | 0.00 | 0.00 | 49 | 1000.8 |
| 20260504080507 | 7 | 216 | 3.2 | 8.0 | 0.00 | 0.00 | 0.00 | 50 | 1010.2 |
| 20260504050505 | 8 | 210 | 1.6 | 4.8 | 0.00 | 0.00 | 0.00 | 51 | 1011.4 |
| 20260504050006 | 9 | 210 | 3.2 | 6.4 | 0.00 | 0.00 | 0.00 | 49 | 1011.4 |
| 20260504050003 | 9 | 210 | 1.6 | 6.4 | 0.00 | 0.00 | 0.00 | 49 | 1002.1 |
| 20260504045505 | 9 | 210 | 3.2 | 6.4 | 0.00 | 0.00 | 0.00 | 47 | 1011.5 |
| 20260504045005 | 9 | 195 | 1.6 | 4.8 | 0.00 | 0.00 | 0.00 | 47 | 1011.5 |
| 20260504044505 | 9 | 196 | 3.2 | 8.0 | 0.00 | 0.00 | 0.00 | 48 | 1011.6 |
| 20260504044005 | 9 | 195 | 4.8 | 8.0 | 0.00 | 0.00 | 0.00 | 50 | 1011.6 |
| 20260504043505 | 9 | 217 | 4.8 | 9.7 | 0.00 | 0.00 | 0.00 | 51 | 1011.7 |
| 20260504043006 | 9 | 199 | 4.8 | 9.7 | 0.00 | 0.00 | 0.00 | 50 | 1011.8 |
| 20260504043003 | 9 | 199 | 4.8 | 9.7 | 0.00 | 0.00 | 0.00 | 50 | 1002.4 |
| 20260504042505 | 10 | 208 | 0.0 | 4.8 | 0.00 | 0.00 | 0.00 | 49 | 1011.8 |
| 20260504042005 | 10 | 208 | 1.6 | 4.8 | 0.00 | 0.00 | 0.00 | 45 | 1011.7 |
| 20260504041505 | 10 | 208 | 3.2 | 4.8 | 0.00 | 0.00 | 0.00 | 45 | 1011.7 |
| 20260504041005 | 10 | 208 | 3.2 | 8.0 | 0.00 | 0.00 | 0.00 | 44 | 1011.9 |
| 20260504040505 | 10 | 208 | 4.8 | 8.0 | 0.00 | 0.00 | 0.00 | 46 | 1011.9 |
| 20260504040011 | 10 | 208 | 4.8 | 8.0 | 0.00 | 0.00 | 0.00 | 45 | 1002.7 |
| 20260504040006 | 10 | 208 | 6.4 | 8.0 | 0.00 | 0.00 | 0.00 | 45 | 1012.0 |
| 20260504035505 | 10 | 208 | 4.8 | 6.4 | 0.00 | 0.00 | 0.00 | 49 | 1012.0 |
| 20260504035005 | 10 | 208 | 4.8 | 6.4 | 0.00 | 0.00 | 0.00 | 48 | 1012.0 |
| 20260504034505 | 11 | 15 | 0.0 | 1.6 | 0.00 | 0.00 | 0.00 | 48 | 1012.0 |
| 20260504034006 | 11 | 15 | 0.0 | 3.2 | 0.00 | 0.00 | 0.00 | 45 | 1012.0 |
| 20260504033504 | 11 | 15 | 1.6 | 3.2 | 0.00 | 0.00 | 0.00 | 40 | 1011.9 |
| 20260504033006 | 11 | 15 | 0.0 | 0.0 | 0.00 | 0.00 | 0.00 | 43 | 1011.9 |
| 20260504033003 | 11 | 15 | 0.0 | 0.0 | 0.00 | 0.00 | 0.00 | 43 | 1002.6 |
| 20260504032505 | 11 | 15 | 0.0 | 0.0 | 0.00 | 0.00 | 0.00 | 43 | 1012.0 |
| 20260504032005 | 11 | 15 | 0.0 | 0.0 | 0.00 | 0.00 | 0.00 | 41 | 1012.0 |
| 20260504031505 | 11 | 15 | 0.0 | 1.6 | 0.00 | 0.00 | 0.00 | 40 | 1012.0 |
| 20260504031503 | 11 | 15 | 0.0 | 1.6 | 0.00 | 0.00 | 0.00 | 40 | 1002.7 |
| 20260504031006 | 11 | 15 | 0.0 | 1.6 | 0.00 | 0.00 | 0.00 | 42 | 1012.0 |
| 20260504030504 | 11 | 15 | 0.0 | 1.6 | 0.00 | 0.00 | 0.00 | 39 | 1012.0 |
| 20260504030008 | 11 | 15 | 0.0 | 0.0 | 0.00 | 0.00 | 0.00 | 39 | 1012.1 |
| 20260504025006 | 11 | 15 | 0.0 | 0.0 | 0.00 | 0.00 | 0.00 | 39 | 1012.0 |
| 20260504024504 | 12 | 15 | 0.0 | 0.0 | 0.00 | 0.00 | 0.00 | 39 | 1012.0 |
| 20260504024502 | 12 | 15 | 0.0 | 0.0 | 0.00 | 0.00 | 0.00 | 39 | 1002.7 |
| 20260504024005 | 12 | 15 | 0.0 | 0.0 | 0.00 | 0.00 | 0.00 | 39 | 1011.9 |
| 20260504023005 | 12 | 15 | 0.0 | 1.6 | 0.00 | 0.00 | 0.00 | 37 | 1011.8 |
| 20260504023003 | 12 | 15 | 0.0 | 1.6 | 0.00 | 0.00 | 0.00 | 37 | 1002.6 |
| 20260504022504 | 12 | 15 | 0.0 | 1.6 | 0.00 | 0.00 | 0.00 | 37 | 1011.8 |
| 20260504022005 | 13 | 15 | 0.0 | 3.2 | 0.00 | 0.00 | 0.00 | 37 | 1011.8 |
| 20260504021505 | 13 | 15 | 0.0 | 8.0 | 0.00 | 0.00 | 0.00 | 36 | 1011.8 |
| 20260504021503 | 13 | 15 | 0.0 | 8.0 | 0.00 | 0.00 | 0.00 | 36 | 1002.5 |
| 20260504021005 | 13 | 15 | 1.6 | 8.0 | 0.00 | 0.00 | 0.00 | 34 | 1011.7 |
| 20260504020006 | 14 | 330 | 4.8 | 9.7 | 0.00 | 0.00 | 0.00 | 32 | 1011.6 |
| 20260504020004 | 14 | 330 | 3.2 | 9.7 | 0.00 | 0.00 | 0.00 | 32 | 1002.4 |
| 20260504015505 | 14 | 328 | 4.8 | 9.7 | 0.00 | 0.00 | 0.00 | 31 | 1011.6 |
| 20260504014511 | 15 | 324 | 4.8 | 12.9 | 0.00 | 0.00 | 0.00 | 30 | 1002.5 |
| 20260504014006 | 15 | 319 | 4.8 | 14.5 | 0.00 | 0.00 | 0.00 | 30 | 1011.8 |
| 20260504013506 | 15 | 317 | 6.4 | 20.9 | 0.00 | 0.00 | 0.00 | 30 | 1011.7 |
| 20260504013007 | 15 | 350 | 4.8 | 20.9 | 0.00 | 0.00 | 0.00 | 29 | 1011.7 |
| 20260504013004 | 15 | 350 | 4.8 | 20.9 | 0.00 | 0.00 | 0.00 | 29 | 1002.5 |
| 20260504012005 | 15 | 26 | 1.6 | 8.0 | 0.00 | 0.00 | 0.00 | 29 | 1011.5 |
| 20260504011505 | 15 | 355 | 3.2 | 8.0 | 0.00 | 0.00 | 0.00 | 28 | 1011.5 |
| 20260504011502 | 15 | 355 | 3.2 | 8.0 | 0.00 | 0.00 | 0.00 | 28 | 1002.3 |
| 20260504010007 | 16 | 337 | 4.8 | 11.3 | 0.00 | 0.00 | 0.00 | 27 | 1011.3 |
| 20260504010005 | 16 | 337 | 3.2 | 11.3 | 0.00 | 0.00 | 0.00 | 27 | 1002.2 |
| 20260504005459 | 16 | 355 | 3.2 | 9.7 | 0.00 | 0.00 | 0.00 | 28 | 1011.2 |
| 20260504005005 | 16 | 349 | 4.8 | 17.7 | 0.00 | 0.00 | 0.00 | 26 | 1011.2 |
| 20260504004504 | 16 | 36 | 4.8 | 17.7 | 0.00 | 0.00 | 0.00 | 25 | 1011.1 |
| 20260504004005 | 17 | 355 | 11.3 | 24.1 | 0.00 | 0.00 | 0.00 | 24 | 1011.1 |
| 20260504003008 | 17 | 48 | 6.4 | 16.1 | 0.00 | 0.00 | 0.00 | 23 | 1002.1 |
| 20260504003006 | 17 | 48 | 6.4 | 16.1 | 0.00 | 0.00 | 0.00 | 23 | 1011.2 |
| 20260504002505 | 17 | 53 | 8.0 | 20.9 | 0.00 | 0.00 | 0.00 | 21 | 1011.2 |
| 20260504001505 | 18 | 14 | 4.8 | 9.7 | 0.00 | 0.00 | 0.00 | 21 | 1011.3 |
| 20260504001503 | 18 | 14 | 4.8 | 9.7 | 0.00 | 0.00 | 0.00 | 21 | 1002.2 |
| 20260504001005 | 18 | 16 | 3.2 | 6.4 | 0.00 | 0.00 | 0.00 | 20 | 1011.2 |
| 20260504000006 | 18 | 16 | 3.2 | 6.4 | 0.00 | 0.00 | 0.00 | 19 | 1011.2 |
| 20260504000004 | 18 | 16 | 3.2 | 6.4 | 0.00 | 0.00 | 0.00 | 19 | 1002.2 |
| 20260503235505 | 18 | 16 | 1.6 | 6.4 | 0.00 | 0.00 | 0.00 | 19 | 1011.2 |
| 20260503235006 | 18 | 17 | 1.6 | 8.0 | 0.00 | 0.00 | 0.00 | 18 | 1011.2 |
| 20260503234505 | 18 | 17 | 1.6 | 8.0 | 0.00 | 0.00 | 0.00 | 17 | 1002.2 |
| 20260503234006 | 18 | 311 | 4.8 | 8.0 | 0.00 | 0.00 | 0.00 | 17 | 1011.3 |
| 20260503233505 | 18 | 300 | 1.6 | 6.4 | 0.00 | 0.00 | 0.00 | 18 | 1011.2 |
| 20260503233007 | 19 | 304 | 1.6 | 4.8 | 0.00 | 0.00 | 0.00 | 18 | 1011.2 |
| 20260503233002 | 19 | 304 | 1.6 | 4.8 | 0.00 | 0.00 | 0.00 | 18 | 1002.1 |
| 20260503232505 | 19 | 316 | 0.0 | 11.3 | 0.00 | 0.00 | 0.00 | 18 | 1011.2 |
| 20260503231504 | 19 | 338 | 4.8 | 19.3 | 0.00 | 0.00 | 0.00 | 16 | 1011.2 |
| 20260503231005 | 20 | 338 | 6.4 | 19.3 | 0.00 | 0.00 | 0.00 | 17 | 1011.2 |
| 20260503230506 | 19 | 355 | 3.2 | 12.9 | 0.00 | 0.00 | 0.00 | 18 | 1011.2 |
| 20260503230007 | 19 | 61 | 6.4 | 12.9 | 0.00 | 0.00 | 0.00 | 17 | 1011.3 |
| 20260503230005 | 19 | 61 | 4.8 | 12.9 | 0.00 | 0.00 | 0.00 | 17 | 1002.2 |
| 20260503225505 | 19 | 5 | 3.2 | 17.7 | 0.00 | 0.00 | 0.00 | 17 | 1011.2 |
| 20260503225006 | 20 | 37 | 11.3 | 24.1 | 0.00 | 0.00 | 0.00 | 16 | 1011.2 |
| 20260503224507 | 20 | 19 | 3.2 | 20.9 | 0.00 | 0.00 | 0.00 | 17 | 1002.2 |
| 20260503224505 | 20 | 19 | 4.8 | 20.9 | 0.00 | 0.00 | 0.00 | 17 | 1011.3 |
| 20260503224007 | 20 | 17 | 6.4 | 16.1 | 0.00 | 0.00 | 0.00 | 15 | 1011.3 |
| 20260503223505 | 20 | 24 | 4.8 | 16.1 | 0.00 | 0.00 | 0.00 | 17 | 1011.4 |
| 20260503223005 | 20 | 5 | 4.8 | 9.7 | 0.00 | 0.00 | 0.00 | 17 | 1011.4 |
| 20260503223002 | 20 | 5 | 4.8 | 9.7 | 0.00 | 0.00 | 0.00 | 17 | 1002.3 |
| 20260503222506 | 20 | 38 | 4.8 | 8.0 | 0.00 | 0.00 | 0.00 | 16 | 1011.4 |
| 20260503222005 | 20 | 150 | 1.6 | 14.5 | 0.00 | 0.00 | 0.00 | 16 | 1011.4 |
| 20260503221505 | 20 | 301 | 8.0 | 14.5 | 0.00 | 0.00 | 0.00 | 15 | 1011.5 |
| 20260503221503 | 20 | 301 | 6.4 | 14.5 | 0.00 | 0.00 | 0.00 | 15 | 1002.5 |
| 20260503221005 | 20 | 317 | 8.0 | 14.5 | 0.00 | 0.00 | 0.00 | 17 | 1011.6 |
| 20260503220507 | 20 | 297 | 3.2 | 14.5 | 0.00 | 0.00 | 0.00 | 14 | 1011.6 |
| 20260503220005 | 20 | 223 | 8.0 | 14.5 | 0.00 | 0.00 | 0.00 | 16 | 1011.8 |
| 20260503220001 | 20 | 223 | 8.0 | 14.5 | 0.00 | 0.00 | 0.00 | 16 | 1002.8 |
| 20260503215505 | 20 | 277 | 8.0 | 14.5 | 0.00 | 0.00 | 0.00 | 15 | 1011.8 |
| 20260503215005 | 19 | 212 | 9.7 | 14.5 | 0.00 | 0.00 | 0.00 | 15 | 1011.9 |
| 20260503214504 | 19 | 117 | 1.6 | 16.1 | 0.00 | 0.00 | 0.00 | 15 | 1012.0 |
| 20260503214006 | 20 | 135 | 8.0 | 16.1 | 0.00 | 0.00 | 0.00 | 15 | 1012.1 |
| 20260503213505 | 20 | 220 | 4.8 | 14.5 | 0.00 | 0.00 | 0.00 | 15 | 1012.1 |
| 20260503213005 | 19 | 244 | 8.0 | 17.7 | 0.00 | 0.00 | 0.00 | 15 | 1012.4 |
| 20260503213003 | 19 | 244 | 6.4 | 17.7 | 0.00 | 0.00 | 0.00 | 15 | 1003.5 |
| 20260503212508 | 20 | 303 | 8.0 | 17.7 | 0.00 | 0.00 | 0.00 | 14 | 1012.4 |
| 20260503212005 | 20 | 306 | 4.8 | 14.5 | 0.00 | 0.00 | 0.00 | 15 | 1012.5 |
| 20260503211559 | 20 | 217 | 3.2 | 16.1 | 0.00 | 0.00 | 0.00 | 16 | 1003.7 |
| 20260503211506 | 20 | 300 | 3.2 | 16.1 | 0.00 | 0.00 | 0.00 | 15 | 1012.6 |
| 20260503211504 | 20 | 300 | 1.6 | 16.1 | 0.00 | 0.00 | 0.00 | 15 | 1003.7 |
| 20260503211006 | 20 | 5 | 6.4 | 16.1 | 0.00 | 0.00 | 0.00 | 18 | 1012.7 |
| 20260503210505 | 19 | 355 | 6.4 | 17.7 | 0.00 | 0.00 | 0.00 | 17 | 1012.8 |
| 20260503210005 | 19 | 326 | 8.0 | 17.7 | 0.00 | 0.00 | 0.00 | 14 | 1004.0 |
| 20260503205506 | 19 | 355 | 4.8 | 16.1 | 0.00 | 0.00 | 0.00 | 18 | 1013.0 |
| 20260503204505 | 18 | 300 | 8.0 | 19.3 | 0.00 | 0.00 | 0.00 | 16 | 1013.2 |
| 20260503204005 | 19 | 350 | 6.4 | 17.7 | 0.00 | 0.00 | 0.00 | 16 | 1013.3 |
| 20260503203505 | 19 | 21 | 6.4 | 17.7 | 0.00 | 0.00 | 0.00 | 13 | 1013.3 |
| 20260503203005 | 20 | 10 | 6.4 | 8.0 | 0.00 | 0.00 | 0.00 | 15 | 1013.4 |
| 20260503203002 | 20 | 10 | 4.8 | 8.0 | 0.00 | 0.00 | 0.00 | 15 | 1004.6 |